Time,TemperatureF,DewpointF,PressureIn,WindDirection,WindDirectionDegrees,WindSpeedMPH,WindSpeedGustMPH,Humidity,HourlyPrecipIn,Conditions,Clouds,dailyrainin,SoftwareType,DateUTC
2013-06-19 00:00:00,65.8,60.0,30.01,East,87,2.0,5.0,80,0.00,,,0.00,weatherlink.com 1.10,2013-06-19 04:00:00,
2013-06-19 00:15:00,65.8,60.0,30.01,ENE,76,5.0,8.0,81,0.00,,,0.00,weatherlink.com 1.10,2013-06-19 04:15:00,
2013-06-19 00:30:00,65.4,59.0,30.01,ESE,103,3.0,8.0,81,0.00,,,0.00,weatherlink.com 1.10,2013-06-19 04:30:00,
2013-06-19 00:46:00,64.9,59.0,30.01,ESE,114,3.0,8.0,81,0.00,,,0.00,weatherlink.com 1.10,2013-06-19 04:46:00,
2013-06-19 01:01:00,64.5,59.0,30.02,East,86,2.0,8.0,83,0.00,,,0.00,weatherlink.com 1.10,2013-06-19 05:01:00,
2013-06-19 01:16:00,63.9,59.0,30.01,ENE,72,4.0,8.0,84,0.00,,,0.00,weatherlink.com 1.10,2013-06-19 05:16:00,
2013-06-19 01:31:00,63.4,59.0,30.01,ENE,76,5.0,7.0,85,0.00,,,0.00,weatherlink.com 1.10,2013-06-19 05:31:00,
2013-06-19 01:48:00,62.7,59.0,30.02,East,96,3.0,6.0,87,0.00,,,0.00,weatherlink.com 1.10,2013-06-19 05:48:00,
2013-06-19 02:02:00,62.3,58.0,30.01,East,93,7.0,10.0,87,0.00,,,0.00,weatherlink.com 1.10,2013-06-19 06:02:00,
2013-06-19 02:18:00,62.4,58.0,30.02,ESE,111,7.0,10.0,86,0.00,,,0.00,weatherlink.com 1.10,2013-06-19 06:18:00,
2013-06-19 02:33:00,62.1,58.0,30.02,East,91,3.0,9.0,87,0.00,,,0.00,weatherlink.com 1.10,2013-06-19 06:33:00,
2013-06-19 02:47:00,61.5,58.0,30.02,East,86,6.0,7.0,88,0.00,,,0.00,weatherlink.com 1.10,2013-06-19 06:47:00,
2013-06-19 03:03:00,61.1,58.0,30.03,East,82,3.0,8.0,89,0.00,,,0.00,weatherlink.com 1.10,2013-06-19 07:03:00,
2013-06-19 03:18:00,60.6,57.0,30.04,ESE,103,3.0,8.0,89,0.00,,,0.00,weatherlink.com 1.10,2013-06-19 07:18:00,
2013-06-19 03:34:00,60.3,57.0,30.04,East,93,5.0,9.0,88,0.00,,,0.00,weatherlink.com 1.10,2013-06-19 07:34:00,
2013-06-19 03:49:00,59.9,55.0,30.03,ENE,72,5.0,8.0,85,0.00,,,0.00,weatherlink.com 1.10,2013-06-19 07:49:00,
2013-06-19 04:05:00,59.4,55.0,30.04,East,86,3.0,7.0,85,0.00,,,0.00,weatherlink.com 1.10,2013-06-19 08:05:00,
2013-06-19 04:20:00,59.0,55.0,30.04,ESE,103,2.0,4.0,86,0.00,,,0.00,weatherlink.com 1.10,2013-06-19 08:20:00,
2013-06-19 04:35:00,58.6,55.0,30.04,East,87,0.0,2.0,87,0.00,,,0.00,weatherlink.com 1.10,2013-06-19 08:35:00,
2013-06-19 04:50:00,58.1,55.0,30.04,East,93,2.0,6.0,88,0.00,,,0.00,weatherlink.com 1.10,2013-06-19 08:50:00,
2013-06-19 05:05:00,57.9,54.0,30.04,ENE,75,2.0,8.0,86,0.00,,,0.00,weatherlink.com 1.10,2013-06-19 09:05:00,
2013-06-19 05:20:00,57.5,53.0,30.05,East,91,2.0,5.0,86,0.00,,,0.00,weatherlink.com 1.10,2013-06-19 09:20:00,
2013-06-19 05:36:00,57.1,53.0,30.05,East,94,2.0,5.0,85,0.00,,,0.00,weatherlink.com 1.10,2013-06-19 09:36:00,
2013-06-19 05:51:00,56.6,52.0,30.06,ENE,65,2.0,5.0,84,0.00,,,0.00,weatherlink.com 1.10,2013-06-19 09:51:00,
2013-06-19 06:06:00,56.3,51.0,30.07,East,81,3.0,4.0,83,0.00,,,0.00,weatherlink.com 1.10,2013-06-19 10:06:00,
2013-06-19 06:23:00,56.0,51.0,30.07,East,81,1.0,3.0,84,0.00,,,0.00,weatherlink.com 1.10,2013-06-19 10:23:00,
2013-06-19 06:38:00,55.8,51.0,30.08,ENE,76,0.0,3.0,84,0.00,,,0.00,weatherlink.com 1.10,2013-06-19 10:38:00,
2013-06-19 06:53:00,56.0,51.0,30.08,ENE,62,3.0,5.0,83,0.00,,,0.00,weatherlink.com 1.10,2013-06-19 10:53:00,
2013-06-19 07:08:00,56.9,51.0,30.08,East,84,5.0,5.0,81,0.00,,,0.00,weatherlink.com 1.10,2013-06-19 11:08:00,
2013-06-19 07:23:00,57.8,52.0,30.08,ENE,69,3.0,5.0,81,0.00,,,0.00,weatherlink.com 1.10,2013-06-19 11:23:00,
2013-06-19 07:38:00,58.8,52.0,30.09,ENE,74,4.0,7.0,79,0.00,,,0.00,weatherlink.com 1.10,2013-06-19 11:38:00,
2013-06-19 07:53:00,59.6,53.0,30.09,East,88,3.0,10.0,78,0.00,,,0.00,weatherlink.com 1.10,2013-06-19 11:53:00,
2013-06-19 08:08:00,60.7,53.0,30.10,ENE,74,4.0,8.0,75,0.00,,,0.00,weatherlink.com 1.10,2013-06-19 12:08:00,
2013-06-19 08:24:00,61.6,53.0,30.10,East,94,8.0,11.0,74,0.00,,,0.00,weatherlink.com 1.10,2013-06-19 12:24:00,
2013-06-19 08:39:00,62.1,54.0,30.11,East,88,9.0,11.0,74,0.00,,,0.00,weatherlink.com 1.10,2013-06-19 12:39:00,
2013-06-19 08:54:00,62.9,55.0,30.11,East,92,7.0,12.0,74,0.00,,,0.00,weatherlink.com 1.10,2013-06-19 12:54:00,
2013-06-19 09:09:00,64.0,55.0,30.12,ENE,61,3.0,8.0,72,0.00,,,0.00,weatherlink.com 1.10,2013-06-19 13:09:00,
2013-06-19 09:25:00,65.3,55.0,30.12,East,90,3.0,9.0,69,0.00,,,0.00,weatherlink.com 1.10,2013-06-19 13:25:00,
2013-06-19 09:40:00,65.9,55.0,30.12,East,97,6.0,7.0,68,0.00,,,0.00,weatherlink.com 1.10,2013-06-19 13:40:00,
2013-06-19 09:55:00,66.4,56.0,30.12,East,89,5.0,10.0,69,0.00,,,0.00,weatherlink.com 1.10,2013-06-19 13:55:00,
2013-06-19 10:11:00,67.5,57.0,30.11,ESE,115,4.0,10.0,68,0.00,,,0.00,weatherlink.com 1.10,2013-06-19 14:11:00,
2013-06-19 10:26:00,68.0,57.0,30.11,East,82,6.0,8.0,69,0.00,,,0.00,weatherlink.com 1.10,2013-06-19 14:26:00,
2013-06-19 10:41:00,69.2,57.0,30.11,ENE,57,5.0,9.0,66,0.00,,,0.00,weatherlink.com 1.10,2013-06-19 14:41:00,
2013-06-19 10:56:00,70.4,58.0,30.11,ENE,72,3.0,10.0,65,0.00,,,0.00,weatherlink.com 1.10,2013-06-19 14:56:00,
2013-06-19 11:12:00,70.6,58.0,30.12,SE,141,4.0,10.0,64,0.00,,,0.00,weatherlink.com 1.10,2013-06-19 15:12:00,
2013-06-19 11:28:00,70.8,56.0,30.12,SSE,167,2.0,9.0,60,0.00,,,0.00,weatherlink.com 1.10,2013-06-19 15:28:00,
2013-06-19 11:43:00,70.9,59.0,30.12,East,84,8.0,8.0,66,0.00,,,0.00,weatherlink.com 1.10,2013-06-19 15:43:00,
2013-06-19 11:58:00,72.8,57.0,30.11,NE,54,3.0,10.0,59,0.00,,,0.00,weatherlink.com 1.10,2013-06-19 15:58:00,
2013-06-19 12:13:00,73.0,56.0,30.11,NE,46,3.0,7.0,56,0.00,,,0.00,weatherlink.com 1.10,2013-06-19 16:13:00,
2013-06-19 12:28:00,72.8,56.0,30.12,SSE,151,2.0,8.0,55,0.00,,,0.00,weatherlink.com 1.10,2013-06-19 16:28:00,
2013-06-19 12:43:00,73.3,58.0,30.11,East,82,8.0,9.0,59,0.00,,,0.00,weatherlink.com 1.10,2013-06-19 16:43:00,
2013-06-19 13:00:00,73.5,58.0,30.11,SE,142,2.0,7.0,58,0.00,,,0.00,weatherlink.com 1.10,2013-06-19 17:00:00,
2013-06-19 13:15:00,74.0,58.0,30.10,ENE,63,4.0,10.0,57,0.00,,,0.00,weatherlink.com 1.10,2013-06-19 17:15:00,
2013-06-19 13:29:00,74.7,58.0,30.11,East,80,1.0,9.0,56,0.00,,,0.00,weatherlink.com 1.10,2013-06-19 17:29:00,
2013-06-19 13:45:00,74.4,57.0,30.10,SE,132,5.0,8.0,55,0.00,,,0.00,weatherlink.com 1.10,2013-06-19 17:45:00,
2013-06-19 14:00:00,73.8,58.0,30.09,SSW,202,1.0,7.0,58,0.00,,,0.00,weatherlink.com 1.10,2013-06-19 18:00:00,
2013-06-19 14:15:00,74.9,59.0,30.09,East,85,3.0,9.0,58,0.00,,,0.00,weatherlink.com 1.10,2013-06-19 18:15:00,
2013-06-19 14:30:00,75.7,57.0,30.09,ENE,65,1.0,9.0,52,0.00,,,0.00,weatherlink.com 1.10,2013-06-19 18:30:00,
2013-06-19 14:46:00,76.6,58.0,30.09,East,90,1.0,7.0,52,0.00,,,0.00,weatherlink.com 1.10,2013-06-19 18:46:00,
2013-06-19 15:00:00,75.9,59.0,30.08,ESE,107,2.0,7.0,56,0.00,,,0.00,weatherlink.com 1.10,2013-06-19 19:00:00,
2013-06-19 15:17:00,76.7,60.0,30.08,East,84,2.0,8.0,56,0.00,,,0.00,weatherlink.com 1.10,2013-06-19 19:17:00,
2013-06-19 15:31:00,76.4,56.0,30.08,ENE,74,0.0,8.0,49,0.00,,,0.00,weatherlink.com 1.10,2013-06-19 19:31:00,
2013-06-19 15:46:00,76.8,58.0,30.08,SSE,168,5.0,9.0,53,0.00,,,0.00,weatherlink.com 1.10,2013-06-19 19:46:00,
2013-06-19 16:03:00,76.0,57.0,30.08,South,182,4.0,6.0,52,0.00,,,0.00,weatherlink.com 1.10,2013-06-19 20:03:00,
2013-06-19 16:18:00,77.1,57.0,30.07,East,96,2.0,8.0,50,0.00,,,0.00,weatherlink.com 1.10,2013-06-19 20:18:00,
2013-06-19 16:33:00,76.9,59.0,30.07,SE,142,3.0,6.0,54,0.00,,,0.00,weatherlink.com 1.10,2013-06-19 20:33:00,
2013-06-19 16:48:00,77.9,57.0,30.07,ENE,61,3.0,7.0,48,0.00,,,0.00,weatherlink.com 1.10,2013-06-19 20:48:00,
2013-06-19 17:02:00,79.1,59.0,30.07,SE,139,3.0,5.0,50,0.00,,,0.00,weatherlink.com 1.10,2013-06-19 21:02:00,
2013-06-19 17:18:00,78.7,58.0,30.06,ESE,111,4.0,8.0,50,0.00,,,0.00,weatherlink.com 1.10,2013-06-19 21:18:00,
2013-06-19 17:33:00,78.0,58.0,30.06,ENE,69,4.0,7.0,50,0.00,,,0.00,weatherlink.com 1.10,2013-06-19 21:33:00,
2013-06-19 17:48:00,78.7,58.0,30.05,East,100,5.0,8.0,49,0.00,,,0.00,weatherlink.com 1.10,2013-06-19 21:48:00,
2013-06-19 18:04:00,79.1,58.0,30.05,ESE,123,0.0,5.0,48,0.00,,,0.00,weatherlink.com 1.10,2013-06-19 22:04:00,
2013-06-19 18:19:00,80.1,57.0,30.05,East,96,5.0,6.0,45,0.00,,,0.00,weatherlink.com 1.10,2013-06-19 22:19:00,
2013-06-19 18:34:00,79.9,57.0,30.05,East,80,1.0,6.0,46,0.00,,,0.00,weatherlink.com 1.10,2013-06-19 22:34:00,
2013-06-19 18:49:00,80.7,57.0,30.05,ENE,63,3.0,4.0,44,0.00,,,0.00,weatherlink.com 1.10,2013-06-19 22:49:00,
2013-06-19 19:05:00,80.4,56.0,30.05,ESE,103,4.0,5.0,44,0.00,,,0.00,weatherlink.com 1.10,2013-06-19 23:05:00,
2013-06-19 19:20:00,79.1,57.0,30.06,ESE,108,2.0,4.0,47,0.00,,,0.00,weatherlink.com 1.10,2013-06-19 23:20:00,
2013-06-19 19:35:00,80.1,57.0,30.06,ESE,108,2.0,3.0,46,0.00,,,0.00,weatherlink.com 1.10,2013-06-19 23:35:00,
2013-06-19 19:51:00,78.6,60.0,30.06,SE,130,0.0,7.0,53,0.00,,,0.00,weatherlink.com 1.10,2013-06-19 23:51:00,
2013-06-19 20:06:00,77.1,58.0,30.07,SE,130,0.0,3.0,52,0.00,,,0.00,weatherlink.com 1.10,2013-06-20 00:06:00,
2013-06-19 20:21:00,76.3,60.0,30.07,SE,130,0.0,0.0,57,0.00,,,0.00,weatherlink.com 1.10,2013-06-20 00:21:00,
2013-06-19 20:36:00,74.9,62.0,30.07,SE,130,0.0,0.0,64,0.00,,,0.00,weatherlink.com 1.10,2013-06-20 00:36:00,
2013-06-19 20:51:00,73.0,60.0,30.07,SE,130,0.0,0.0,65,0.00,,,0.00,weatherlink.com 1.10,2013-06-20 00:51:00,
2013-06-19 21:07:00,71.0,60.0,30.08,SE,130,0.0,0.0,69,0.00,,,0.00,weatherlink.com 1.10,2013-06-20 01:07:00,
2013-06-19 21:38:00,68.2,61.0,30.08,SE,130,0.0,0.0,77,0.00,,,0.00,weatherlink.com 1.10,2013-06-20 01:38:00,
2013-06-19 21:53:00,67.5,60.0,30.09,SE,130,0.0,0.0,78,0.00,,,0.00,weatherlink.com 1.10,2013-06-20 01:53:00,
2013-06-19 22:08:00,67.5,60.0,30.09,SE,130,0.0,0.0,78,0.00,,,0.00,weatherlink.com 1.10,2013-06-20 02:08:00,
2013-06-19 22:23:00,66.5,59.0,30.10,SE,130,0.0,0.0,77,0.00,,,0.00,weatherlink.com 1.10,2013-06-20 02:23:00,
2013-06-19 22:38:00,65.8,59.0,30.10,SE,130,0.0,0.0,79,0.00,,,0.00,weatherlink.com 1.10,2013-06-20 02:38:00,
2013-06-19 22:53:00,65.1,59.0,30.11,SE,130,0.0,0.0,80,0.00,,,0.00,weatherlink.com 1.10,2013-06-20 02:53:00,
2013-06-19 23:09:00,64.4,58.0,30.10,SE,130,0.0,0.0,80,0.00,,,0.00,weatherlink.com 1.10,2013-06-20 03:09:00,
2013-06-19 23:24:00,63.8,58.0,30.10,SE,130,0.0,0.0,80,0.00,,,0.00,weatherlink.com 1.10,2013-06-20 03:24:00,
2013-06-19 23:39:00,63.7,57.0,30.10,SE,130,0.0,0.0,79,0.00,,,0.00,weatherlink.com 1.10,2013-06-20 03:39:00,
2013-06-19 23:54:00,63.5,56.0,30.10,SE,130,0.0,1.0,76,0.00,,,0.00,weatherlink.com 1.10,2013-06-20 03:54:00,